📊 Raw Sensor Data
Showing records 52701 to 52725 of 85,303 total
| ID | Distance (ft) | Battery V | Battery A | Int Temp (°F) | Int Humid (%) | Ext Temp (°F) | Solar V | RSSI | SNR | Time Stamp |
|---|---|---|---|---|---|---|---|---|---|---|
| 32615 | 12.7 | 3.61 | -5 | 36 | 38 | 38 | 0.00 | -85 | 9 | 02/17/2025 05:30 AM |
| 32614 | 12.7 | 3.61 | -5 | 36 | 38 | 38 | 0.00 | -83 | 8 | 02/17/2025 05:15 AM |
| 32613 | 12.7 | 3.61 | -5 | 37 | 38 | 38 | 0.10 | -83 | 8 | 02/17/2025 05:00 AM |
| 32612 | 12.7 | 3.74 | -5 | 37 | 39 | 38 | 0.00 | -83 | 9 | 02/17/2025 04:45 AM |
| 32611 | 12.7 | 3.75 | -5 | 38 | 39 | 37 | 0.00 | -83 | 8 | 02/17/2025 04:30 AM |
| 32610 | 12.7 | 3.61 | -5 | 39 | 39 | 39 | 0.00 | -84 | 8 | 02/17/2025 04:15 AM |
| 32609 | 12.7 | 3.62 | -5 | 42 | 38 | 42 | 0.00 | -84 | 8 | 02/17/2025 04:00 AM |
| 32608 | 12.6 | 3.75 | -5 | 43 | 37 | 44 | 0.00 | -83 | 8 | 02/17/2025 03:45 AM |
| 32607 | 12.6 | 3.61 | -5 | 44 | 37 | 45 | 0.00 | -81 | 8 | 02/17/2025 03:30 AM |
| 32606 | 12.6 | 3.61 | -5 | 43 | 37 | 45 | 0.00 | -83 | 9 | 02/17/2025 03:15 AM |
| 32605 | 12.6 | 3.75 | -5 | 43 | 38 | 45 | 0.00 | -83 | 9 | 02/17/2025 03:00 AM |
| 32604 | 12.6 | 3.63 | -5 | 43 | 38 | 45 | 0.00 | -83 | 8 | 02/17/2025 02:45 AM |
| 32603 | 12.6 | 3.76 | -5 | 44 | 37 | 45 | 0.00 | -84 | 8 | 02/17/2025 02:30 AM |
| 32602 | 12.6 | 3.62 | -5 | 45 | 37 | 46 | 0.00 | -83 | 8 | 02/17/2025 02:15 AM |
| 32601 | 12.6 | 3.76 | -5 | 45 | 37 | 47 | 0.00 | -83 | 8 | 02/17/2025 02:00 AM |
| 32600 | 12.6 | 3.64 | -5 | 45 | 37 | 47 | 0.00 | -83 | 9 | 02/17/2025 01:45 AM |
| 32599 | 12.6 | 3.76 | -5 | 45 | 37 | 47 | 0.10 | -84 | 9 | 02/17/2025 01:30 AM |
| 32598 | 12.6 | 3.63 | -5 | 44 | 38 | 46 | 0.00 | -85 | 8 | 02/17/2025 01:15 AM |
| 32597 | 12.6 | 3.76 | -5 | 44 | 38 | 45 | 0.00 | -84 | 9 | 02/17/2025 01:00 AM |
| 32596 | 12.6 | 3.63 | -5 | 44 | 38 | 46 | 0.00 | -84 | 8 | 02/17/2025 12:45 AM |
| 32595 | 12.6 | 3.63 | -5 | 44 | 38 | 46 | 0.10 | -85 | 8 | 02/17/2025 12:30 AM |
| 32594 | 12.6 | 3.64 | -5 | 45 | 38 | 45 | 0.00 | -85 | 8 | 02/17/2025 12:15 AM |
| 32593 | 12.6 | 3.76 | -5 | 46 | 38 | 47 | 0.00 | -86 | 8 | 02/17/2025 12:00 AM |
| 32592 | 12.6 | 3.64 | -5 | 46 | 38 | 47 | 0.10 | -87 | 9 | 02/16/2025 11:45 PM |
| 32591 | 12.6 | 3.77 | -5 | 47 | 38 | 48 | 0.10 | -84 | 9 | 02/16/2025 11:30 PM |